This is the latest recevied weather packets stored in our database for station/object K3HW. If no packets are shown the sender has not sent any weather packets the latest 10 day(s).
| Time | Temp. | Humidity | Pressure | Rain* | Wind** | Luminosity | Snow |
|---|---|---|---|---|---|---|---|
| 1777512837 | 10° C | 88% | 1013.9 hPa | 3.05 mm | - | 0 W/m² | - |
| 1777512534 | 9.44° C | 87% | 1013.7 hPa | 1.78 mm | - | 0 W/m² | - |
| 1777512231 | 10° C | 87% | 1014.1 hPa | 1.78 mm | - | 0 W/m² | - |
| 1777511928 | 10° C | 87% | 1013.7 hPa | 1.78 mm | - | 0 W/m² | - |
| 1777511626 | 10° C | 87% | 1013.5 hPa | 1.78 mm | - | 0 W/m² | - |
| 1777511324 | 10° C | 86% | 1013.7 hPa | 1.27 mm | - | 0 W/m² | - |
| 1777511019 | 10° C | 85% | 1013.9 hPa | 3.05 mm | - | 0 W/m² | - |
| 1777510716 | 10° C | 84% | 1013.6 hPa | 1.78 mm | - | 0 W/m² | - |
| 1777510412 | 10° C | 84% | 1013.4 hPa | 3.05 mm | - | 0 W/m² | - |
| 1777510108 | 10° C | 83% | 1013.6 hPa | 4.32 mm | - | 0 W/m² | - |
| 1777509805 | 10.56° C | 81% | 1013.5 hPa | 3.05 mm | - | 0 W/m² | - |
| 1777509501 | 10.56° C | 82% | 1013.3 hPa | 1.78 mm | - | 0 W/m² | - |
| 1777509199 | 11.11° C | 81% | 1013.4 hPa | 0 mm | - | 0 W/m² | - |
| 1777508895 | 11.11° C | 80% | 1013.4 hPa | 0 mm | - | 0 W/m² | - |
| 1777508592 | 11.11° C | 81% | 1013.2 hPa | 0 mm | - | 0 W/m² | - |
| 1777508289 | 11.11° C | 80% | 1013.2 hPa | 1.27 mm | - | 0 W/m² | - |
| 1777507986 | 11.11° C | 79% | 1013.2 hPa | 1.27 mm | - | 0 W/m² | - |
| 1777507683 | 11.11° C | 79% | 1013.2 hPa | 0 mm | - | 0 W/m² | - |
| 1777507380 | 11.67° C | 79% | 1013 hPa | 0 mm | - | 0 W/m² | - |
| 1777507077 | 11.67° C | 78% | 1013.4 hPa | 0 mm | - | 0 W/m² | - |
| 1777506775 | 11.67° C | 79% | 1013.2 hPa | 0 mm | - | 0 W/m² | - |
| 1777506471 | 11.67° C | 79% | 1013.2 hPa | 0 mm | - | 0 W/m² | - |
| 1777506167 | 11.67° C | 78% | 1013.3 hPa | 0 mm | - | 1 W/m² | - |
| 1777505863 | 11.67° C | 77% | 1013.3 hPa | 0 mm | - | 1 W/m² | - |
| 1777505559 | 11.67° C | 78% | 1013.2 hPa | 0 mm | - | 1 W/m² | - |
* Rain latest hour (hover to see other rain measurements)
** Current wind speed in m/s (hover to see current wind gust speed)